{"data":{"norad_id":52496,"intl_designator":"2022-049AX","name":"STARLINK-3871","alt_names":[],"object_type":"PAYLOAD","status":"ACTIVE","operator":null,"country":"US","launch_date":"2022-05-06","launch_site_code":"AFETR","launch_vehicle":null,"mission":null,"orbit_class":"UNKNOWN","rcs_meters":null,"size_class":null,"mass_kg":null,"dimensions":null,"purposes":["comms"],"wikipedia_slug":null,"has_3d_model":false,"image_url":null,"decayed_at":null,"tle_current":{"epoch":"2026-05-25T03:40:56.293248Z","epoch_age_seconds":68714,"freshness":"FRESH","line1":"1 52496U 22049AX  26145.15342932  .00000477  00000+0  48085-4 0  9996","line2":"2 52496  53.2125  60.8612 0001235  86.6642 273.4492 15.08836467224009","mean_motion":15.08836467,"eccentricity":0.0001235,"inclination_deg":53.2125,"raan_deg":60.8612,"arg_perigee_deg":86.6642,"mean_anomaly_deg":273.4492,"bstar":4.8085e-5,"rev_number":22400,"period_min":95.437778148558,"perigee_km":538.89982839106,"apogee_km":540.60854751449,"semimajor_km":6917.8911879528,"source":"CELESTRAK","updated_at":"2026-05-25T13:38:17.158941Z"}}}